Location: Barton Flats Campground
(34.1722°N, 116.8753°W)
Time: 20:02:42
(UTC+00:00)

Atlas Centaur 2 - Pass Details

Date: 08 August 2020
Orbit: 459 x 1310 km, 30.4° (Epoch: 01 October)

Event Time Altitude Azimuth Distance (km) Brightness Sun altitude
Exits shadow 12:19:02 11° 239° (WSW) 2,892 4.3 -9.4°
Maximum altitude 12:26:08 55° 165° (SSE) 1,459 3.4 -8.1°
Drops below altitude 10° 12:34:23 10° 90° (E) 3,319 6.5 -6.5°
Sets 12:37:28 0° 87° (E) 4,291 7.4 -6.0°
